Regional Weather Roundup
Issued by NWS

Home | Current Version | Previous Version | Text Only | Print | Product List | Glossary Off
Versions: 1 2 3 4 5 6 7 8 9 10 11 12 13 14 15 16 17 18 19 20 21 22 23 24 25 26 27 28 29 30 31 32 33 34 35 36 37 38 39 40 41 42 43 44 45 46 47 48 49 50

000
ASUS43 KMPX 221510
RWRMN
WEATHER ROUNDUP FOR MINNESOTA
NATIONAL WEATHER SERVICE TWIN CITIES/CHANHASSEN MN
1000 AM CDT SAT APR 22 2017


NOTE: "FAIR" INDICATES FEW OR NO CLOUDS BELOW 12,000 FEET WITH NO
SIGNIFICANT WEATHER AND/OR OBSTRUCTIONS TO VISIBILITY. N/A MEANS
CURRENT SKY AND/OR WEATHER CONDITIONS ARE NOT AVAILABLE.

MNZ060>063-068>070-221600-
   Twin Cities Metro

CITY           SKY/WX    TMP DP  RH WIND       PRES   REMARKS
TWIN CITIES    MOSUNNY   58  30  34 S6        30.26F
ST PAUL        SUNNY     58  29  33 W8        30.27F
CRYSTAL        SUNNY     58  34  40 S6        30.24F
BLAINE         SUNNY     61  36  39 SW7       30.25F
LAKEVILLE      SUNNY     57  32  38 W5        30.26F
EDEN PRAIRIE   SUNNY     58  39  49 S6        30.25F
SOUTH ST PAUL  SUNNY     58  30  34 SW6       30.26S
LAKE ELMO      FAIR      59  32  36 SW7       30.26F
$$
MNZ001>005-007-008-013>017-022>024-027-028-221600-
   Northwest Minnesota

CITY           SKY/WX    TMP DP  RH WIND       PRES   REMARKS
BEMIDJI        SUNNY     58  38  46 W16G22    30.16F
HALLOCK        CLOUDY    43  43 100 N16       30.18R FOG
ROSEAU         CLOUDY    50  43  76 NW9       30.12F
WARROAD        MOSUNNY   50  41  71 W5        30.12S
THIEF RVR FALL MOSUNNY   54  41  61 W14       30.16F
CROOKSTON      MOSUNNY   55  43  62 NW8       30.17F
FOSSTON        PTSUNNY   54  37  54 SW13      30.18S
DETROIT LAKES  SUNNY     55  37  50 W12       30.21F
MOORHEAD       MOSUNNY   55  41  58 SW15      30.21F
PARK RAPIDS    SUNNY     59  36  42 W15       30.19F
MAHNOMEN       FAIR      54  41  62 SW16      30.19S
$$
MNZ006-009>011-018-025>026-221600-
   North Central Minnesota

CITY           SKY/WX    TMP DP  RH WIND       PRES   REMARKS
BAUDETTE       SUNNY     57  37  47 W12       30.09F
FLAG ISLAND    CLOUDY    45  39  81 NW16      30.12R
INTL FALLS     CLOUDY    57  39  51 W8        30.09F
WASKISH        SUNNY     55  43  62 SW15      30.13F
BIG FORK       SUNNY     59  37  44 W10       30.14F
LONGVILLE      CLOUDY    55  37  50 SW8       30.18F
GRAND RAPIDS   MOSUNNY   57  37  47 W10G17    30.18F
CRANE LAKE     MOSUNNY   54  37  54 W3        30.13F
ORR            SUNNY     55  36  47 MISG      30.10F
COOK           MOSUNNY   55  39  54 W9        30.14F
WALKER         FAIR      57  37  46 W10       30.17F
$$
MNZ012-019>021-037-221600-
   Northeast Minnesota

CITY           SKY/WX    TMP DP  RH WIND       PRES   REMARKS
DULUTH         SUNNY     59  37  44 NW13      30.17F
ELY            CLOUDY    54  34  47 W8        30.13F
HIBBING        SUNNY     57  36  45 W12G17    30.15F
EVELETH        SUNNY     56  32  39 W8        30.16F
DULUTH HARBOR  SUNNY     57  39  51 SW10      30.18F
TWO HARBORS    SUNNY     63  39  42 W9        30.14F
SILVER BAY     SUNNY     63  32  31 W8        30.12F
GRAND MARAIS     N/A     40  35  83 SW9       30.12F
G MARAIS ARPRT MOSUNNY   57  28  33 SW8       30.12F
$$
MNZ029>031-032-039>041-046>048-054>057-064-221600-
   West Central Minnesota

CITY           SKY/WX    TMP DP  RH WIND       PRES   REMARKS
FERGUS FALLS   SUNNY     54  43  66 W8        30.22F
WHEATON        SUNNY     59  37  44 SW12      30.26F
MORRIS         SUNNY     57  43  58 W3        30.24F
ALEXANDRIA     SUNNY     58  37  45 W10       30.24F
ELBOW LAKE     FAIR      56  43  61 W8        30.24F
WADENA         SUNNY     57  39  51 W12       30.21F
GLENWOOD       SUNNY     55  41  58 W9        30.25F
APPLETON       SUNNY     57  41  54 W3        30.25F
BENSON         SUNNY     59  37  44 W5        30.27F
ORTONVILLE     SUNNY     57  41  54 W5        30.25F
MADISON        SUNNY     61  43  51 W5        30.26F
WILLMAR        FAIR      55  43  62 NW7       30.27F
$$
MNZ033>034-036-042>043-049>051-058-059-221600-
   Central Minnesota

CITY           SKY/WX    TMP DP  RH WIND       PRES   REMARKS
ST CLOUD       SUNNY     57  40  52 NW6       30.24S
SAUK CENTRE    FAIR      57  41  55 W10       30.24F
PAYNESVILLE    SUNNY     57  40  52 W7        30.26S
AITKIN         MOSUNNY   57  36  44 SW7       30.19F
PINE RIVER     SUNNY     59  39  47 W8        30.22F
BRAINERD       SUNNY     57  38  48 SW12      30.21F
STAPLES        SUNNY     57  37  47 SW8       30.21F
LONG PRAIRIE   FAIR      55  37  50 SW10      30.24F
LITTLE FALLS   SUNNY     55  36  47 W5        30.23F
LITCHFIELD     SUNNY     57  43  58 W6        30.26S
BUFFALO        SUNNY     57  36  45 SW6       30.26S
MAPLE LAKE     SUNNY     61  40  47 W6        30.25F
HUTCHINSON     MOSUNNY   58  43  56 W8        30.27S
$$
MNZ037-044-045-052-053-221600-
   East Central Minnesota

CITY           SKY/WX    TMP DP  RH WIND       PRES   REMARKS
PRINCETON      SUNNY     61  39  44 W6        30.24S
MORA           SUNNY     55  37  50 NW5       30.24S
CAMBRIDGE      SUNNY     61  41  48 W5        30.22S
RUSH CITY      SUNNY     59  38  45 SW7       30.23F
MOOSE LAKE     SUNNY     59  36  41 CALM      30.18F
HINCKLEY       FAIR      57  41  54 W5        30.22F
CLOQUET        SUNNY     61  28  29 SW10G16   30.17F
MCGREGOR       MOSUNNY   55  37  50 W6        30.20F
$$
MNZ071>073-080-081-089-090-097-098-221600-
   Southwest Minnesota

CITY           SKY/WX    TMP DP  RH WIND       PRES   REMARKS
MONTEVIDEO     SUNNY     61  46  59 NW3       30.27F
GRANITE FALLS  SUNNY     59  45  59 W8        30.28F
CANBY          SUNNY     59  38  45 CALM      30.28F
MARSHALL       SUNNY     59  42  53 NW7       30.28S
REDWOOD FALLS  SUNNY     56  41  57 N6        30.26F
OLIVIA         SUNNY     55  45  67 NW7       30.25F
PIPESTONE      SUNNY     55  37  50 CALM      30.28S
WINDOM         SUNNY     59  37  44 NW9       30.27S
WORTHINGTON    SUNNY     57  37  47 NW9       30.29
JACKSON        SUNNY     55  36  47 NW10      30.27S
TRACY          SUNNY     58  44  58 N7        30.28S
SLAYTON        SUNNY     55  41  60 NW5       30.28F
$$
MNZ065>067-074>077-082>085-091>093-221600-
   South Central Minnesota

CITY           SKY/WX    TMP DP  RH WIND       PRES   REMARKS
MANKATO        SUNNY     56  39  53 NW3       30.27F
NEW ULM        SUNNY     54  43  66 W3        30.26F
ST JAMES       SUNNY     55  45  67 NW6       30.28F
FAIRMONT       SUNNY     56  41  57 NW7       30.28S
GLENCOE        SUNNY     60  41  49 SW5       30.25F
FARIBAULT      SUNNY     57  32  38 W5        30.27F
OWATONNA       SUNNY     55  30  38 CALM      30.27S
WASECA         SUNNY     55  34  44 W5        30.28S
ALBERT LEA     SUNNY     55  23  28 CALM      30.26S
$$
MNZ078>079-086>088-094>096-221600-
   Southeast Minnesota

CITY           SKY/WX    TMP DP  RH WIND       PRES   REMARKS
ROCHESTER      SUNNY     52  31  44 CALM      30.27S
RED WING       SUNNY     55  28  35 CALM      30.25F
STANTON        SUNNY     56  38  51 CALM      30.26S
DODGE CENTER   SUNNY     55  25  30 CALM      30.26S
WINONA         SUNNY     52  36  54 CALM      30.27S
AUSTIN         SUNNY     54  28  37 CALM      30.26S
PRESTON        SUNNY     51  34  52 CALM      30.27S
$$
ABBREVIATIONS USED IN REMARKS
   TC - TEMPERATURES IN CELSIUS
  WCI - WIND CHILL INDEX
   HX - HEAT INDEX
  VSB - VISIBILITY
$$




USA.gov is the U.S. government's official web portal to all federal, state and local government web resources and services.